Location: Joplin, MO
(37.0842°N, 94.5133°W)
Time: 20:29:34
(UTC+02:00)

Transit 2A Rocket - Pass Details

Date: 26 March 2023
Orbit: 584 x 914 km, 66.7° (Epoch: 09 June)

Event Time Altitude Azimuth Distance (km) Brightness Sun altitude
Rises 03:19:59 0° 342° (NNW) 3,554 8.9 -9.9°
Reaches altitude 10° 03:23:03 10° 356° (N) 2,605 7.9 -10.5°
Maximum altitude 03:27:56 24° 49° (NE) 1,755 6.5 -11.4°
Enters shadow 03:31:14 16° 92° (E) 2,156 6.7 -12.1°
Drops below altitude 10° 03:32:38 10° 102° (ESE) 2,511 - -12.3°
Sets 03:35:31 0° 116° (ESE) 3,399 - -12.9°
